• MPC Preparation (Info)

  • MPEC 2008-T127: 2008 TV26

    The following Minor Planet Electronic Circular may be linked-to from your own Web pages, but must not otherwise be redistributed electronically.

    A form allowing access to any MPEC is at the bottom of this page.


    Read MPEC 2008-T126 Read MPEC 2008-T128


    M.P.E.C. 2008-T127                               Issued 2008 Oct. 14, 11:30 UT
    
         The Minor Planet Electronic Circulars contain information on unusual
             minor planets and routine data on comets.  They are published
       on behalf of Commission 20 of the International Astronomical Union by the
              Minor Planet Center, Smithsonian Astrophysical Observatory,
                              Cambridge, MA 02138, U.S.A.
    
                 Prepared using the Tamkin Foundation Computer Network
    
                                  MPC@CFA.HARVARD.EDU
              URL http://www.cfa.harvard.edu/iau/mpc.html  ISSN 1523-6714
    
                                       2008 TV26
    
    Observations:
         K08T26V* C2008 10 08.46900 03 00 54.97 +20 52 02.1          20.3 V ET127H10
         K08T26V  C2008 10 08.47100 03 00 54.88 +20 52 02.4          20.3 V ET127H10
         K08T26V  C2008 10 08.47350 03 00 54.80 +20 52 02.8          20.2 V ET127H10
         K08T26V  C2008 10 08.47566 03 00 54.71 +20 52 03.1          20.5 V ET127H10
         K08T26V  C2008 10 09.30747 03 00 24.35 +20 54 56.5          20.6 V ET127H10
         K08T26V  C2008 10 09.31799 03 00 23.88 +20 54 59.2          20.3 V ET127H10
         K08T26V  C2008 10 09.32086 03 00 23.77 +20 54 59.6          20.6 V ET127H10
         K08T26V  C2008 10 09.32322 03 00 23.67 +20 55 00.1          20.5 V ET127H10
         K08T26V  C2008 10 09.32567 03 00 23.56 +20 55 00.6          20.7 V ET127H10
         K08T26V  C2008 10 09.32756 03 00 23.46 +20 55 00.3          20.5 V ET127H10
         K08T26V  C2008 10 09.33327 03 00 23.26 +20 55 02.1          20.6 V ET127H10
         K08T26V  C2008 10 09.33508 03 00 23.18 +20 55 02.4          20.4 V ET127H10
         K08T26V  C2008 10 09.39546 03 00 20.84 +20 55 15.4          20.3 V ET127691
         K08T26V  C2008 10 09.41313 03 00 20.02 +20 55 18.6          20.4 V ET127691
         K08T26V  C2008 10 09.43079 03 00 19.26 +20 55 22.4          20.3 V ET127691
         K08T26V  C2008 10 13.49020 02 57 20.65 +21 08 10.2          19.7 V ET127H10
         K08T26V  C2008 10 13.49534 02 57 20.43 +21 08 11.1          19.9 V ET127H10
         K08T26V  C2008 10 13.50063 02 57 20.17 +21 08 12.6          19.7 V ET127H10
    
    Observer details:
    691 Steward Observatory, Kitt Peak.  Observer J. V. Scotti.  0.9-m f/3
        reflector + CCD.
    H10 Tzec Maun Observatory, Mayhill.  Observer R. Apitzsch.  0.35-m f/4
        reflector + CCD.
    
    Orbital elements:
    2008 TV26                                                Earth MOID = 0.2719 AU
    Epoch 2008 Nov. 30.0 TT = JDT 2454800.5                 MPC
    M 313.67557              (2000.0)            P               Q
    n   0.35656986     Peri.  126.05216     -0.76723354     -0.64084080
    a   1.9695770      Node    14.15413     +0.54894783     -0.67709726
    e   0.3685209      Incl.    6.10252     +0.33167602     -0.36174903
    P   2.76           H   18.1           G   0.15           U   9
    Residuals in seconds of arc
    081008 H10  0.1+  0.1+    081009 H10  0.5-  0.0     081009 691  1.2+  0.3+
    081008 H10  0.1-  0.0     081009 H10  0.5-  0.0     081009 691  0.1+  0.1-
    081008 H10  0.1+  0.1-    081009 H10  0.6-  0.0     081009 691  0.2-  0.2+
    081008 H10  0.0   0.2-    081009 H10  0.9-  0.7-    081013 H10  0.5-  0.3-
    081009 H10  0.1-  0.3-    081009 H10  0.4-  0.1-    081013 H10  0.1+  0.2-
    081009 H10  0.6-  0.2+    081009 H10  0.5-  0.2-    081013 H10  0.3+  0.4+
    
    Ephemeris:
    2008 TV26                a,e,i = 1.97, 0.37, 6                   q = 1.2437
    Date    TT    R. A. (2000) Decl.     Delta      r     Elong.  Phase     V
    2008 10 11    02 59.26   +21 00.6    0.981    1.909   149.3    15.5    20.3
    2008 10 21    02 49.96   +21 25.9    0.893    1.862   160.8    10.1    19.9
    2008 10 31    02 36.72   +21 34.8    0.826    1.814   171.7     4.5    19.4
    2008 11 10    02 21.13   +21 25.8    0.783    1.766   169.6     5.8    19.3
    2008 11 20    02 05.68   +21 02.9    0.763    1.718   157.3    12.8    19.4
    2008 11 30    01 52.94   +20 35.4    0.764    1.669   144.6    20.0    19.6
    2008 12 10    01 44.89   +20 15.5    0.782    1.621   132.8    26.5    19.8
    2008 12 20    01 42.39   +20 12.5    0.810    1.573   122.2    31.9    20.0
    2008 12 30    01 45.49   +20 30.7    0.845    1.526   113.0    36.4    20.1
    2009 01 09    01 53.85   +21 10.5    0.881    1.481   105.0    39.9    20.3
    2009 01 19    02 06.94   +22 09.0    0.918    1.438    98.1    42.7    20.4
    2009 01 29    02 24.35   +23 21.6    0.952    1.397    92.3    44.8    20.4
    2009 02 08    02 45.74   +24 42.7    0.983    1.360    87.3    46.4    20.5
    2009 02 18    03 10.84   +26 05.4    1.011    1.326    83.1    47.7    20.5
    2009 02 28    03 39.45   +27 22.5    1.035    1.298    79.6    48.7    20.6
    2009 03 10    04 11.34   +28 25.8    1.057    1.275    76.8    49.3    20.6
    2009 03 20    04 46.12   +29 06.9    1.078    1.258    74.5    49.7    20.6
    2009 03 30    05 23.29   +29 18.3    1.100    1.247    72.8    49.9    20.6
    2009 04 09    06 02.12   +28 53.7    1.123    1.244    71.4    49.7    20.7
    2009 04 19    06 41.72   +27 49.6    1.150    1.247    70.4    49.3    20.7
    2009 04 29    07 21.22   +26 05.9    1.183    1.258    69.6    48.6    20.8
    2009 05 09    07 59.86   +23 45.8    1.223    1.275    68.9    47.6    20.9
    2009 05 19    08 37.02   +20 55.4    1.270    1.298    68.3    46.4    20.9
    2009 05 29    09 12.44   +17 41.9    1.327    1.327    67.6    44.9    21.0
    2009 06 08    09 45.99   +14 13.5    1.392    1.360    66.7    43.3    21.2
    2009 06 18    10 17.73   +10 37.2    1.465    1.398    65.7    41.5    21.3
    2009 06 28    10 47.84   +06 59.2    1.548    1.438    64.4    39.6    21.4
    2009 07 08    11 16.52   +03 24.3    1.638    1.482    62.8    37.6    21.5
    2009 07 18    11 44.00   -00 03.9    1.735    1.527    61.0    35.6    21.7
    
    Timothy B. Spahr             (C) Copyright 2008 MPC           M.P.E.C. 2008-T127
    

    Read MPEC 2008-T126 Read MPEC 2008-T128


    MPEC number:

    Enter an MPEC number in one of the following forms:

    • 1997-B01 (the full form)
    • J97B01 (the packed version of the full form)
    • B01 (the abbreviated form)